Regional Weather Roundup
Issued by NWS

Home | Current Version | Previous Version | Text Only | Print | Product List | Glossary On
Versions: 1 2 3 4 5 6 7 8 9 10 11 12 13 14 15 16 17 18 19 20 21 22 23 24 25 26 27 28 29 30 31 32 33 34 35 36 37 38 39 40 41 42 43 44 45 46 47 48 49 50
000
ASUS43 KBIS 242210
RWRND
NORTH DAKOTA REGIONAL WEATHER ROUNDUP
NATIONAL WEATHER SERVICE EASTERN NORTH DAKOTA/GRAND FORKS ND
400 PM CST SAT FEB 24 2018

  NOTE: "FAIR" INDICATES FEW OR NO CLOUDS BELOW 12,000 FEET WITH NO
  SIGNIFICANT WEATHER AND/OR OBSTRUCTIONS TO VISIBILITY.

NDZ001>003-009>011-017-242300-
...NORTHWEST NORTH DAKOTA...

CITY           SKY/WX    TMP DP  RH WIND       PRES   REMARKS
WILLISTON      FAIR      22  12  65 SW12      29.61F WCI  10
MINOT          FLURRIES  21  13  71 SW13      29.62F WCI   9
MINOT AFB      CLOUDY    20  14  79 SW8         N/A  WCI  10
$$

NDZ018>021-031>035-040>046-242300-
...SOUTHWEST NORTH DAKOTA...

CITY           SKY/WX    TMP DP  RH WIND       PRES   REMARKS
BISMARCK       CLOUDY    22  16  78 SW8       29.69F WCI  12
DICKINSON      FAIR      23  10  57 W13       29.61F WCI  11
GARRISON         N/A     22  15  75 SW8       29.63F WCI  12
HETTINGER      FAIR      20  10  65 W15       29.66F WCI   6
$$

NDZ004>008-012>016-024-026-027-054-242300-
...NORTHEAST NORTH DAKOTA...

CITY           SKY/WX    TMP DP  RH WIND       PRES   REMARKS
GRAND FORKS    CLOUDY    16   9  74 S13       29.81F WCI   2
GRAND FORKS AF CLOUDY    14  10  85 S14       29.79F BLWGSNOWWCI  -1
DEVILS LAKE    LGT SNOW  19  16  86 S13       29.70F FOG     WCI   7
$$

NDZ022-023-025-028>030-036>039-047>053-242300-
...SOUTHEAST NORTH DAKOTA...

CITY           SKY/WX    TMP DP  RH WIND       PRES   REMARKS
JAMESTOWN      SNOW      14  11  87 SE9       29.71F VSB 1/2 WCI   2
FARGO          HVY SNOW  16  13  88 NE5       29.77F VSB 1/4 WCI   9
WAHPETON       CLOUDY    19  18  93 NE9       29.74F VSB 1/2 WCI   9
$$




USA.gov is the U.S. government's official web portal to all federal, state and local government web resources and services.